This is the latest recevied weather packets stored in our database for station/object EA2MKR. If no packets are shown the sender has not sent any weather packets the latest 10 day(s).
| Time | Temp. | Humidity | Pressure | Rain* | Wind** | Luminosity | Snow |
|---|---|---|---|---|---|---|---|
| 1788028967 | 22.78° C | 50% | 955.4 hPa | 0 mm | - | - | - |
| 1788028663 | 23.33° C | 49% | 955.3 hPa | 0 mm | - | - | - |
| 1788028364 | 23.33° C | 49% | 955.2 hPa | 0 mm | - | - | - |
| 1788028063 | 23.89° C | 48% | 955.2 hPa | 0 mm | - | - | - |
| 1788027762 | 24.44° C | 48% | 955.2 hPa | 0 mm | - | - | - |
| 1788027463 | 24.44° C | 48% | 955.1 hPa | 0 mm | - | - | - |
| 1788027162 | 25° C | 47% | 955 hPa | 0 mm | - | - | - |
| 1788026862 | 25.56° C | 46% | 954.9 hPa | 0 mm | - | - | - |
| 1788026563 | 26.11° C | 44% | 954.7 hPa | 0 mm | - | - | - |
| 1788026259 | 26.67° C | 43% | 954.8 hPa | 0 mm | - | - | - |
| 1788025958 | 26.67° C | 43% | 954.7 hPa | 0 mm | - | - | - |
| 1788025651 | 27.22° C | 42% | 954.7 hPa | 0 mm | - | - | - |
| 1788025344 | 27.22° C | 42% | 954.7 hPa | 0 mm | - | - | - |
| 1788025161 | 27.78° C | 41% | 954.7 hPa | 0 mm | - | - | - |
| 1788024737 | 28.33° C | 40% | 954.7 hPa | 0 mm | - | - | - |
| 1788024434 | 28.89° C | 39% | 954.6 hPa | 0 mm | - | - | - |
| 1788024130 | 28.89° C | 38% | 954.7 hPa | 0 mm | - | - | - |
| 1788023830 | 28.33° C | 38% | 954.6 hPa | 0 mm | - | - | - |
| 1788023653 | 28.33° C | 39% | 954.4 hPa | 0 mm | - | - | - |
| 1788023229 | 29.44° C | 30% | 954.5 hPa | 0 mm | - | - | - |
| 1788022922 | 29.44° C | 30% | 954.5 hPa | 0 mm | - | - | - |
| 1788022620 | 29.44° C | 30% | 954.5 hPa | 0 mm | - | - | - |
| 1788022318 | 29.44° C | 30% | 954.5 hPa | 0 mm | - | - | - |
| 1788022012 | 29.44° C | 30% | 954.5 hPa | 0 mm | - | - | - |
| 1788021708 | 29.44° C | 30% | 954.5 hPa | 0 mm | - | - | - |
* Rain latest hour (hover to see other rain measurements)
** Current wind speed in m/s (hover to see current wind gust speed)